Time,TemperatureF,DewpointF,PressureIn,WindDirection,WindDirectionDegrees,WindSpeedMPH,WindSpeedGustMPH,Humidity,HourlyPrecipIn,Conditions,Clouds,dailyrainin,SolarRadiationWatts/m^2,SoftwareType,DateUTC
2014-07-24 00:04:00,62.8,57.2,30.07,North,10,0.0,0.0,82,0.00,,,0.00,0,Wunderground v.1.15,2014-07-24 04:04:00,
2014-07-24 00:09:00,62.6,57.4,30.07,North,10,0.0,0.0,83,0.00,,,0.00,0,Wunderground v.1.15,2014-07-24 04:09:00,
2014-07-24 00:14:00,62.3,57.1,30.07,North,10,1.0,1.0,83,0.00,,,0.00,0,Wunderground v.1.15,2014-07-24 04:14:00,
2014-07-24 00:19:00,62.1,56.9,30.07,North,10,1.0,1.0,83,0.00,,,0.00,0,Wunderground v.1.15,2014-07-24 04:19:00,
2014-07-24 00:24:00,61.8,56.9,30.07,North,10,0.0,1.0,84,0.00,,,0.00,0,Wunderground v.1.15,2014-07-24 04:24:00,
2014-07-24 00:29:00,61.6,56.7,30.07,North,9,0.0,5.0,84,0.00,,,0.00,0,Wunderground v.1.15,2014-07-24 04:29:00,
2014-07-24 00:34:00,61.4,56.5,30.08,North,9,0.0,5.0,84,0.00,,,0.00,0,Wunderground v.1.15,2014-07-24 04:34:00,
2014-07-24 00:39:00,61.2,56.7,30.07,North,9,0.0,5.0,85,0.00,,,0.00,0,Wunderground v.1.15,2014-07-24 04:39:00,
2014-07-24 00:44:00,61.1,56.6,30.08,NNW,348,0.0,5.0,85,0.00,,,0.00,0,Wunderground v.1.15,2014-07-24 04:44:00,
2014-07-24 00:49:00,61.0,56.5,30.08,NNW,348,1.0,5.0,85,0.00,,,0.00,0,Wunderground v.1.15,2014-07-24 04:49:00,
2014-07-24 00:59:00,60.6,56.1,30.07,NNW,348,0.0,1.0,85,0.00,,,0.00,0,Wunderground v.1.15,2014-07-24 04:59:00,
2014-07-24 01:04:00,60.3,56.1,30.08,NNW,348,0.0,0.0,86,0.00,,,0.00,0,Wunderground v.1.15,2014-07-24 05:04:00,
2014-07-24 01:09:00,59.9,55.7,30.08,NNW,348,1.0,1.0,86,0.00,,,0.00,0,Wunderground v.1.15,2014-07-24 05:09:00,
2014-07-24 01:14:00,59.7,55.5,30.08,NNW,348,1.0,1.0,86,0.00,,,0.00,0,Wunderground v.1.15,2014-07-24 05:14:00,
2014-07-24 01:19:00,59.6,55.4,30.08,NNW,348,1.0,1.0,86,0.00,,,0.00,0,Wunderground v.1.15,2014-07-24 05:19:00,
2014-07-24 01:24:00,59.4,55.2,30.07,NNW,348,0.0,0.0,86,0.00,,,0.00,0,Wunderground v.1.15,2014-07-24 05:24:00,
2014-07-24 01:34:00,59.3,54.8,30.07,NNW,348,0.0,4.0,85,0.00,,,0.00,0,Wunderground v.1.15,2014-07-24 05:34:00,
2014-07-24 01:39:00,59.2,55.0,30.07,NNW,348,0.0,4.0,86,0.00,,,0.00,0,Wunderground v.1.15,2014-07-24 05:39:00,
2014-07-24 01:44:00,59.0,54.8,30.07,NNW,348,0.0,4.0,86,0.00,,,0.00,0,Wunderground v.1.15,2014-07-24 05:44:00,
2014-07-24 01:54:00,58.7,54.8,30.07,NNW,348,0.0,0.0,87,0.00,,,0.00,0,Wunderground v.1.15,2014-07-24 05:54:00,
2014-07-24 01:59:00,58.5,54.6,30.07,NNW,348,0.0,0.0,87,0.00,,,0.00,0,Wunderground v.1.15,2014-07-24 05:59:00,
2014-07-24 02:04:00,58.3,54.4,30.07,NNW,348,0.0,0.0,87,0.00,,,0.00,0,Wunderground v.1.15,2014-07-24 06:04:00,
2014-07-24 02:09:00,58.1,54.2,30.08,NNW,348,0.0,0.0,87,0.00,,,0.00,0,Wunderground v.1.15,2014-07-24 06:09:00,
2014-07-24 02:14:00,57.9,54.4,30.08,NNW,348,0.0,0.0,88,0.00,,,0.00,0,Wunderground v.1.15,2014-07-24 06:14:00,
2014-07-24 02:19:00,57.8,54.3,30.08,NNW,348,0.0,0.0,88,0.00,,,0.00,0,Wunderground v.1.15,2014-07-24 06:19:00,
2014-07-24 02:24:00,57.7,54.2,30.08,NNW,348,0.0,0.0,88,0.00,,,0.00,0,Wunderground v.1.15,2014-07-24 06:24:00,
2014-07-24 02:29:00,57.6,54.1,30.07,NNW,348,0.0,3.0,88,0.00,,,0.00,0,Wunderground v.1.15,2014-07-24 06:29:00,
2014-07-24 02:34:00,57.5,54.0,30.07,NNW,348,0.0,3.0,88,0.00,,,0.00,0,Wunderground v.1.15,2014-07-24 06:34:00,
2014-07-24 02:39:00,57.4,53.9,30.07,NNW,348,0.0,3.0,88,0.00,,,0.00,0,Wunderground v.1.15,2014-07-24 06:39:00,
2014-07-24 02:44:00,57.4,53.9,30.07,NNW,348,0.0,3.0,88,0.00,,,0.00,0,Wunderground v.1.15,2014-07-24 06:44:00,
2014-07-24 02:49:00,57.4,53.6,30.07,NNW,348,0.0,3.0,87,0.00,,,0.00,0,Wunderground v.1.15,2014-07-24 06:49:00,
2014-07-24 02:54:00,57.4,53.6,30.08,NNW,348,0.0,0.0,87,0.00,,,0.00,0,Wunderground v.1.15,2014-07-24 06:54:00,
2014-07-24 02:59:00,57.4,53.6,30.07,NNW,348,0.0,0.0,87,0.00,,,0.00,0,Wunderground v.1.15,2014-07-24 06:59:00,
2014-07-24 03:04:00,57.3,53.5,30.07,NNW,348,0.0,0.0,87,0.00,,,0.00,0,Wunderground v.1.15,2014-07-24 07:04:00,
2014-07-24 03:09:00,57.3,53.5,30.07,NNW,348,0.0,0.0,87,0.00,,,0.00,0,Wunderground v.1.15,2014-07-24 07:09:00,
2014-07-24 03:14:00,57.2,53.4,30.07,NNW,348,0.0,0.0,87,0.00,,,0.00,0,Wunderground v.1.15,2014-07-24 07:14:00,
2014-07-24 03:19:00,57.2,53.4,30.07,NNW,348,0.0,0.0,87,0.00,,,0.00,0,Wunderground v.1.15,2014-07-24 07:19:00,
2014-07-24 03:24:00,57.3,53.1,30.07,NNW,348,0.0,0.0,86,0.00,,,0.00,0,Wunderground v.1.15,2014-07-24 07:24:00,
2014-07-24 03:34:00,57.4,53.2,30.07,NNW,348,0.0,2.0,86,0.00,,,0.00,0,Wunderground v.1.15,2014-07-24 07:34:00,
2014-07-24 03:39:00,57.3,53.1,30.07,NNW,348,0.0,2.0,86,0.00,,,0.00,0,Wunderground v.1.15,2014-07-24 07:39:00,
2014-07-24 03:44:00,57.3,53.1,30.07,NNW,348,0.0,2.0,86,0.00,,,0.00,0,Wunderground v.1.15,2014-07-24 07:44:00,
2014-07-24 03:49:00,57.3,53.1,30.07,NNW,348,0.0,2.0,86,0.00,,,0.00,0,Wunderground v.1.15,2014-07-24 07:49:00,
2014-07-24 03:59:00,57.3,53.1,30.07,NNW,348,0.0,0.0,86,0.00,,,0.00,0,Wunderground v.1.15,2014-07-24 07:59:00,
2014-07-24 04:04:00,57.2,53.0,30.07,NNW,348,0.0,0.0,86,0.00,,,0.00,0,Wunderground v.1.15,2014-07-24 08:04:00,
2014-07-24 04:09:00,57.2,52.7,30.07,NNW,348,0.0,0.0,85,0.00,,,0.00,0,Wunderground v.1.15,2014-07-24 08:09:00,
2014-07-24 04:14:00,57.1,52.6,30.07,NNW,348,0.0,0.0,85,0.00,,,0.00,0,Wunderground v.1.15,2014-07-24 08:14:00,
2014-07-24 04:19:00,57.0,52.9,30.07,NNW,348,0.0,0.0,86,0.00,,,0.00,0,Wunderground v.1.15,2014-07-24 08:19:00,
2014-07-24 04:24:00,56.8,52.7,30.07,NNW,348,0.0,2.0,86,0.00,,,0.00,0,Wunderground v.1.15,2014-07-24 08:24:00,
2014-07-24 04:29:00,56.9,52.8,30.07,NNW,348,1.0,1.0,86,0.00,,,0.00,0,Wunderground v.1.15,2014-07-24 08:29:00,
2014-07-24 04:34:00,56.8,52.7,30.07,NNW,348,1.0,1.0,86,0.00,,,0.00,0,Wunderground v.1.15,2014-07-24 08:34:00,
2014-07-24 04:39:00,56.9,52.8,30.07,NNW,348,1.0,1.0,86,0.00,,,0.00,0,Wunderground v.1.15,2014-07-24 08:39:00,
2014-07-24 04:44:00,56.9,52.8,30.07,NNW,348,2.0,2.0,86,0.00,,,0.00,0,Wunderground v.1.15,2014-07-24 08:44:00,
2014-07-24 04:49:00,56.9,52.8,30.08,NNW,348,1.0,1.0,86,0.00,,,0.00,0,Wunderground v.1.15,2014-07-24 08:49:00,
2014-07-24 04:54:00,56.7,52.6,30.08,NNW,348,1.0,1.0,86,0.00,,,0.00,0,Wunderground v.1.15,2014-07-24 08:54:00,
2014-07-24 04:59:00,56.6,52.5,30.08,NNW,348,0.0,1.0,86,0.00,,,0.00,0,Wunderground v.1.15,2014-07-24 08:59:00,
2014-07-24 05:04:00,56.4,52.6,30.08,NNW,348,1.0,1.0,87,0.00,,,0.00,0,Wunderground v.1.15,2014-07-24 09:04:00,
2014-07-24 05:09:00,56.3,52.5,30.08,NNW,348,1.0,1.0,87,0.00,,,0.00,0,Wunderground v.1.15,2014-07-24 09:09:00,
2014-07-24 05:14:00,56.2,52.4,30.08,NNW,348,1.0,1.0,87,0.00,,,0.00,0,Wunderground v.1.15,2014-07-24 09:14:00,
2014-07-24 05:19:00,56.2,52.4,30.08,NNW,348,1.0,1.0,87,0.00,,,0.00,0,Wunderground v.1.15,2014-07-24 09:19:00,
2014-07-24 05:24:00,56.1,52.6,30.08,NNW,348,1.0,3.0,88,0.00,,,0.00,0,Wunderground v.1.15,2014-07-24 09:24:00,
2014-07-24 05:29:00,56.2,52.7,30.08,NNW,348,2.0,4.0,88,0.00,,,0.00,0,Wunderground v.1.15,2014-07-24 09:29:00,
2014-07-24 05:34:00,56.2,52.4,30.08,NNW,348,2.0,4.0,87,0.00,,,0.00,0,Wunderground v.1.15,2014-07-24 09:34:00,
2014-07-24 05:39:00,56.2,52.4,30.08,NNW,348,2.0,4.0,87,0.00,,,0.00,0,Wunderground v.1.15,2014-07-24 09:39:00,
2014-07-24 05:44:00,56.2,52.7,30.09,NNW,348,2.0,4.0,88,0.00,,,0.00,0,Wunderground v.1.15,2014-07-24 09:44:00,
2014-07-24 05:49:00,56.2,52.4,30.09,NNW,348,2.0,4.0,87,0.00,,,0.00,0,Wunderground v.1.15,2014-07-24 09:49:00,
2014-07-24 05:55:00,56.2,52.7,30.09,North,355,2.0,3.0,88,0.00,,,0.00,0,Wunderground v.1.15,2014-07-24 09:55:00,
2014-07-24 05:59:00,56.1,52.6,30.09,North,355,2.0,3.0,88,0.00,,,0.00,0,Wunderground v.1.15,2014-07-24 09:59:00,
2014-07-24 06:04:00,56.0,52.5,30.09,North,355,2.0,3.0,88,0.00,,,0.00,0,Wunderground v.1.15,2014-07-24 10:04:00,
2014-07-24 06:09:00,55.9,52.4,30.09,North,355,2.0,3.0,88,0.00,,,0.00,0,Wunderground v.1.15,2014-07-24 10:09:00,
2014-07-24 06:14:00,55.9,52.7,30.09,North,355,1.0,1.0,89,0.00,,,0.00,0,Wunderground v.1.15,2014-07-24 10:14:00,
2014-07-24 06:19:00,55.9,52.7,30.09,North,355,2.0,2.0,89,0.00,,,0.00,5,Wunderground v.1.15,2014-07-24 10:19:00,
2014-07-24 06:24:00,55.8,52.6,30.10,North,355,2.0,2.0,89,0.00,,,0.00,7,Wunderground v.1.15,2014-07-24 10:24:00,
2014-07-24 06:29:00,55.7,52.5,30.10,North,355,1.0,5.0,89,0.00,,,0.00,9,Wunderground v.1.15,2014-07-24 10:29:00,
2014-07-24 06:34:00,55.6,52.4,30.10,North,355,1.0,1.0,89,0.00,,,0.00,12,Wunderground v.1.15,2014-07-24 10:34:00,
2014-07-24 06:39:00,55.5,52.6,30.10,North,355,1.0,5.0,90,0.00,,,0.00,14,Wunderground v.1.15,2014-07-24 10:39:00,
2014-07-24 06:44:00,55.5,52.6,30.10,North,355,0.0,5.0,90,0.00,,,0.00,16,Wunderground v.1.15,2014-07-24 10:44:00,
2014-07-24 06:49:00,55.5,52.6,30.11,North,355,1.0,5.0,90,0.00,,,0.00,40,Wunderground v.1.15,2014-07-24 10:49:00,
2014-07-24 06:54:00,55.7,53.1,30.11,North,355,2.0,2.0,91,0.00,,,0.00,56,Wunderground v.1.15,2014-07-24 10:54:00,
2014-07-24 06:59:00,55.9,53.3,30.11,North,355,2.0,2.0,91,0.00,,,0.00,65,Wunderground v.1.15,2014-07-24 10:59:00,
2014-07-24 07:04:00,56.2,53.6,30.11,North,355,2.0,2.0,91,0.00,,,0.00,81,Wunderground v.1.15,2014-07-24 11:04:00,
2014-07-24 07:09:00,56.4,53.8,30.11,North,355,2.0,3.0,91,0.00,,,0.00,102,Wunderground v.1.15,2014-07-24 11:09:00,
2014-07-24 07:14:00,56.8,54.2,30.11,North,355,3.0,3.0,91,0.00,,,0.00,120,Wunderground v.1.15,2014-07-24 11:14:00,
2014-07-24 07:24:00,57.5,54.6,30.11,NNW,348,4.0,4.0,90,0.00,,,0.00,135,Wunderground v.1.15,2014-07-24 11:24:00,
2014-07-24 07:29:00,57.7,54.5,30.11,North,349,4.0,7.0,89,0.00,,,0.00,149,Wunderground v.1.15,2014-07-24 11:29:00,
2014-07-24 07:34:00,58.0,54.8,30.11,North,360,4.0,5.0,89,0.00,,,0.00,165,Wunderground v.1.15,2014-07-24 11:34:00,
2014-07-24 07:39:00,58.2,55.0,30.11,North,5,3.0,5.0,89,0.00,,,0.00,183,Wunderground v.1.15,2014-07-24 11:39:00,
2014-07-24 07:44:00,58.4,55.2,30.11,NNW,342,3.0,6.0,89,0.00,,,0.00,199,Wunderground v.1.15,2014-07-24 11:44:00,
2014-07-24 07:49:00,58.6,55.1,30.12,North,5,4.0,6.0,88,0.00,,,0.00,216,Wunderground v.1.15,2014-07-24 11:49:00,
2014-07-24 07:54:00,58.9,55.4,30.12,North,355,3.0,3.0,88,0.00,,,0.00,232,Wunderground v.1.15,2014-07-24 11:54:00,
2014-07-24 07:59:00,59.1,55.2,30.12,NNE,12,3.0,3.0,87,0.00,,,0.00,248,Wunderground v.1.15,2014-07-24 11:59:00,
2014-07-24 08:04:00,59.4,55.5,30.12,North,355,4.0,4.0,87,0.00,,,0.00,265,Wunderground v.1.15,2014-07-24 12:04:00,
2014-07-24 08:09:00,59.7,55.8,30.12,NNE,27,3.0,4.0,87,0.00,,,0.00,292,Wunderground v.1.15,2014-07-24 12:09:00,
2014-07-24 08:14:00,60.0,55.8,30.12,North,355,3.0,5.0,86,0.00,,,0.00,288,Wunderground v.1.15,2014-07-24 12:14:00,
2014-07-24 08:19:00,60.0,55.5,30.12,North,349,3.0,5.0,85,0.00,,,0.00,320,Wunderground v.1.15,2014-07-24 12:19:00,
2014-07-24 08:24:00,60.0,55.5,30.12,NNE,14,3.0,5.0,85,0.00,,,0.00,276,Wunderground v.1.15,2014-07-24 12:24:00,
2014-07-24 08:29:00,60.4,56.2,30.12,North,5,2.0,7.0,86,0.00,,,0.00,352,Wunderground v.1.15,2014-07-24 12:29:00,
2014-07-24 08:39:00,61.3,56.4,30.12,NNW,348,4.0,7.0,84,0.00,,,0.00,369,Wunderground v.1.15,2014-07-24 12:39:00,
2014-07-24 08:44:00,61.7,56.5,30.12,ENE,69,3.0,3.0,83,0.00,,,0.00,385,Wunderground v.1.15,2014-07-24 12:44:00,
2014-07-24 08:49:00,62.3,57.1,30.13,NE,46,3.0,7.0,83,0.00,,,0.00,399,Wunderground v.1.15,2014-07-24 12:49:00,
2014-07-24 08:54:00,62.9,57.0,30.13,ENE,66,2.0,4.0,81,0.00,,,0.00,415,Wunderground v.1.15,2014-07-24 12:54:00,
2014-07-24 08:59:00,63.2,56.6,30.13,NE,44,2.0,4.0,79,0.00,,,0.00,429,Wunderground v.1.15,2014-07-24 12:59:00,
2014-07-24 09:04:00,63.6,57.3,30.13,North,9,3.0,3.0,80,0.00,,,0.00,443,Wunderground v.1.15,2014-07-24 13:04:00,
2014-07-24 09:09:00,63.8,56.8,30.13,North,5,3.0,3.0,78,0.00,,,0.00,459,Wunderground v.1.15,2014-07-24 13:09:00,
2014-07-24 09:14:00,64.1,57.1,30.13,North,5,3.0,4.0,78,0.00,,,0.00,471,Wunderground v.1.15,2014-07-24 13:14:00,
2014-07-24 09:19:00,64.1,56.7,30.13,NNE,30,4.0,4.0,77,0.00,,,0.00,487,Wunderground v.1.15,2014-07-24 13:19:00,
2014-07-24 09:24:00,64.5,57.1,30.13,NNW,342,4.0,7.0,77,0.00,,,0.00,501,Wunderground v.1.15,2014-07-24 13:24:00,
2014-07-24 09:29:00,64.7,57.3,30.13,NE,44,3.0,10.0,77,0.00,,,0.00,515,Wunderground v.1.15,2014-07-24 13:29:00,
2014-07-24 09:34:00,65.0,57.6,30.13,NNW,342,3.0,10.0,77,0.00,,,0.00,531,Wunderground v.1.15,2014-07-24 13:34:00,
2014-07-24 09:39:00,65.1,57.0,30.13,NNW,348,3.0,10.0,75,0.00,,,0.00,547,Wunderground v.1.15,2014-07-24 13:39:00,
2014-07-24 09:44:00,65.2,56.7,30.13,NNW,336,4.0,10.0,74,0.00,,,0.00,557,Wunderground v.1.15,2014-07-24 13:44:00,
2014-07-24 09:49:00,65.4,57.3,30.13,North,351,4.0,10.0,75,0.00,,,0.00,570,Wunderground v.1.15,2014-07-24 13:49:00,
2014-07-24 09:54:00,65.9,57.0,30.12,NE,38,2.0,3.0,73,0.00,,,0.00,584,Wunderground v.1.15,2014-07-24 13:54:00,
2014-07-24 09:59:00,66.3,57.4,30.12,NE,45,2.0,3.0,73,0.00,,,0.00,599,Wunderground v.1.15,2014-07-24 13:59:00,
2014-07-24 10:04:00,66.6,56.5,30.12,East,94,2.0,2.0,70,0.00,,,0.00,610,Wunderground v.1.15,2014-07-24 14:04:00,
2014-07-24 10:09:00,67.1,57.4,30.13,NNW,346,2.0,5.0,71,0.00,,,0.00,622,Wunderground v.1.15,2014-07-24 14:09:00,
2014-07-24 10:14:00,67.2,56.3,30.13,NNW,342,3.0,3.0,68,0.00,,,0.00,636,Wunderground v.1.15,2014-07-24 14:14:00,
2014-07-24 10:19:00,67.4,55.6,30.13,North,11,3.0,4.0,66,0.00,,,0.00,647,Wunderground v.1.15,2014-07-24 14:19:00,
2014-07-24 10:24:00,67.5,54.9,30.12,NE,52,3.0,3.0,64,0.00,,,0.00,657,Wunderground v.1.15,2014-07-24 14:24:00,
2014-07-24 10:34:00,67.6,54.1,30.13,NE,40,4.0,4.0,62,0.00,,,0.00,693,Wunderground v.1.15,2014-07-24 14:34:00,
2014-07-24 10:39:00,67.8,54.3,30.13,North,11,4.0,5.0,62,0.00,,,0.00,724,Wunderground v.1.15,2014-07-24 14:39:00,
2014-07-24 10:44:00,67.9,53.0,30.13,North,5,4.0,4.0,59,0.00,,,0.00,742,Wunderground v.1.15,2014-07-24 14:44:00,
2014-07-24 10:49:00,67.8,53.4,30.13,NE,53,5.0,5.0,60,0.00,,,0.00,798,Wunderground v.1.15,2014-07-24 14:49:00,
2014-07-24 10:54:00,68.4,53.5,30.12,ENE,65,4.0,4.0,59,0.00,,,0.00,911,Wunderground v.1.15,2014-07-24 14:54:00,
2014-07-24 11:09:00,68.9,53.5,30.13,NE,49,4.0,6.0,58,0.00,,,0.00,881,Wunderground v.1.15,2014-07-24 15:09:00,
2014-07-24 11:14:00,68.9,51.6,30.13,ESE,106,4.0,6.0,54,0.00,,,0.00,220,Wunderground v.1.15,2014-07-24 15:14:00,
2014-07-24 11:19:00,68.5,52.7,30.13,NNE,19,3.0,4.0,57,0.00,,,0.00,329,Wunderground v.1.15,2014-07-24 15:19:00,
2014-07-24 11:24:00,68.5,53.1,30.13,North,5,3.0,4.0,58,0.00,,,0.00,325,Wunderground v.1.15,2014-07-24 15:24:00,
2014-07-24 11:29:00,68.5,51.7,30.13,NW,323,4.0,9.0,55,0.00,,,0.00,362,Wunderground v.1.15,2014-07-24 15:29:00,
2014-07-24 11:34:00,68.9,52.1,30.12,NE,41,4.0,9.0,55,0.00,,,0.00,1097,Wunderground v.1.15,2014-07-24 15:34:00,
2014-07-24 11:39:00,68.9,51.6,30.12,NNE,31,4.0,4.0,54,0.00,,,0.00,336,Wunderground v.1.15,2014-07-24 15:39:00,
2014-07-24 11:44:00,68.4,52.1,30.12,North,5,4.0,9.0,56,0.00,,,0.00,283,Wunderground v.1.15,2014-07-24 15:44:00,
2014-07-24 11:49:00,68.3,52.9,30.12,NNE,27,4.0,4.0,58,0.00,,,0.00,986,Wunderground v.1.15,2014-07-24 15:49:00,
2014-07-24 11:54:00,68.4,52.1,30.12,North,5,3.0,4.0,56,0.00,,,0.00,267,Wunderground v.1.15,2014-07-24 15:54:00,
2014-07-24 11:59:00,68.3,52.5,30.12,North,360,3.0,4.0,57,0.00,,,0.00,255,Wunderground v.1.15,2014-07-24 15:59:00,
2014-07-24 12:04:00,68.1,53.2,30.12,North,355,3.0,3.0,59,0.00,,,0.00,283,Wunderground v.1.15,2014-07-24 16:04:00,
2014-07-24 12:09:00,68.6,51.3,30.12,NNW,334,3.0,3.0,54,0.00,,,0.00,378,Wunderground v.1.15,2014-07-24 16:09:00,
2014-07-24 12:14:00,69.0,52.6,30.12,NNW,348,2.0,7.0,56,0.00,,,0.00,420,Wunderground v.1.15,2014-07-24 16:14:00,
2014-07-24 12:19:00,68.9,52.6,30.12,North,5,3.0,7.0,56,0.00,,,0.00,408,Wunderground v.1.15,2014-07-24 16:19:00,
2014-07-24 12:24:00,68.7,51.4,30.12,NE,41,4.0,4.0,54,0.00,,,0.00,564,Wunderground v.1.15,2014-07-24 16:24:00,
2014-07-24 12:29:00,68.8,52.0,30.12,North,9,4.0,11.0,55,0.00,,,0.00,401,Wunderground v.1.15,2014-07-24 16:29:00,
2014-07-24 12:34:00,69.1,54.2,30.12,ENE,70,2.0,11.0,59,0.00,,,0.00,1276,Wunderground v.1.15,2014-07-24 16:34:00,
2014-07-24 12:39:00,70.1,53.7,30.12,NE,52,3.0,11.0,56,0.00,,,0.00,1276,Wunderground v.1.15,2014-07-24 16:39:00,
2014-07-24 12:44:00,69.8,52.9,30.12,NNE,16,4.0,11.0,55,0.00,,,0.00,399,Wunderground v.1.15,2014-07-24 16:44:00,
2014-07-24 12:49:00,69.5,53.6,30.11,North,5,3.0,11.0,57,0.00,,,0.00,489,Wunderground v.1.15,2014-07-24 16:49:00,
2014-07-24 12:54:00,70.0,53.1,30.11,WNW,302,2.0,2.0,55,0.00,,,0.00,1260,Wunderground v.1.15,2014-07-24 16:54:00,
2014-07-24 12:59:00,70.6,52.6,30.11,NE,48,2.0,2.0,53,0.00,,,0.00,417,Wunderground v.1.15,2014-07-24 16:59:00,
2014-07-24 13:04:00,70.6,52.6,30.11,NE,44,1.0,5.0,53,0.00,,,0.00,424,Wunderground v.1.15,2014-07-24 17:04:00,
2014-07-24 13:09:00,70.1,51.7,30.11,NE,49,2.0,5.0,52,0.00,,,0.00,401,Wunderground v.1.15,2014-07-24 17:09:00,
2014-07-24 13:14:00,69.9,53.5,30.11,ENE,58,4.0,6.0,56,0.00,,,0.00,1243,Wunderground v.1.15,2014-07-24 17:14:00,
2014-07-24 13:19:00,70.6,54.6,30.11,ENE,61,3.0,6.0,57,0.00,,,0.00,1266,Wunderground v.1.15,2014-07-24 17:19:00,
2014-07-24 13:24:00,71.2,54.7,30.10,North,9,4.0,10.0,56,0.00,,,0.00,420,Wunderground v.1.15,2014-07-24 17:24:00,
2014-07-24 13:29:00,70.7,53.2,30.10,ENE,62,4.0,13.0,54,0.00,,,0.00,1076,Wunderground v.1.15,2014-07-24 17:29:00,
2014-07-24 13:34:00,70.6,52.1,30.10,North,360,4.0,13.0,52,0.00,,,0.00,1174,Wunderground v.1.15,2014-07-24 17:34:00,
2014-07-24 13:39:00,70.8,52.3,30.10,NNW,345,4.0,13.0,52,0.00,,,0.00,455,Wunderground v.1.15,2014-07-24 17:39:00,
2014-07-24 13:44:00,70.6,52.6,30.10,North,360,5.0,13.0,53,0.00,,,0.00,373,Wunderground v.1.15,2014-07-24 17:44:00,
2014-07-24 13:54:00,69.8,52.9,30.10,NNW,336,5.0,5.0,55,0.00,,,0.00,445,Wunderground v.1.15,2014-07-24 17:54:00,
2014-07-24 13:59:00,70.3,52.4,30.10,NNW,333,4.0,7.0,53,0.00,,,0.00,1021,Wunderground v.1.15,2014-07-24 17:59:00,
2014-07-24 14:04:00,70.7,51.1,30.09,NW,321,4.0,4.0,50,0.00,,,0.00,1069,Wunderground v.1.15,2014-07-24 18:04:00,
2014-07-24 14:09:00,71.5,51.9,30.09,ESE,107,3.0,5.0,50,0.00,,,0.00,1127,Wunderground v.1.15,2014-07-24 18:09:00,
2014-07-24 14:14:00,72.2,54.6,30.09,ENE,61,3.0,3.0,54,0.00,,,0.00,1132,Wunderground v.1.15,2014-07-24 18:14:00,
2014-07-24 14:19:00,71.8,52.7,30.10,NNW,339,4.0,5.0,51,0.00,,,0.00,385,Wunderground v.1.15,2014-07-24 18:19:00,
2014-07-24 14:24:00,71.6,53.6,30.09,NNE,22,5.0,5.0,53,0.00,,,0.00,886,Wunderground v.1.15,2014-07-24 18:24:00,
2014-07-24 14:29:00,72.0,53.9,30.09,North,349,3.0,10.0,53,0.00,,,0.00,926,Wunderground v.1.15,2014-07-24 18:29:00,
2014-07-24 14:34:00,72.2,52.5,30.09,North,355,3.0,10.0,50,0.00,,,0.00,325,Wunderground v.1.15,2014-07-24 18:34:00,
2014-07-24 14:39:00,71.4,52.9,30.09,NNW,343,4.0,10.0,52,0.00,,,0.00,330,Wunderground v.1.15,2014-07-24 18:39:00,
2014-07-24 14:44:00,71.0,53.5,30.09,NNW,333,3.0,10.0,54,0.00,,,0.00,921,Wunderground v.1.15,2014-07-24 18:44:00,
2014-07-24 14:49:00,71.2,53.2,30.09,NW,322,3.0,10.0,53,0.00,,,0.00,294,Wunderground v.1.15,2014-07-24 18:49:00,
2014-07-24 14:54:00,71.5,55.0,30.09,NNE,17,3.0,3.0,56,0.00,,,0.00,803,Wunderground v.1.15,2014-07-24 18:54:00,
2014-07-24 14:59:00,72.0,52.9,30.09,NNW,329,3.0,3.0,51,0.00,,,0.00,854,Wunderground v.1.15,2014-07-24 18:59:00,
2014-07-24 15:04:00,72.4,53.2,30.09,NNW,338,2.0,2.0,51,0.00,,,0.00,861,Wunderground v.1.15,2014-07-24 19:04:00,
2014-07-24 15:09:00,72.2,54.1,30.09,North,5,3.0,3.0,53,0.00,,,0.00,385,Wunderground v.1.15,2014-07-24 19:09:00,
2014-07-24 15:14:00,71.8,53.2,30.09,North,355,5.0,6.0,52,0.00,,,0.00,380,Wunderground v.1.15,2014-07-24 19:14:00,
2014-07-24 15:19:00,71.8,53.7,30.09,ENE,58,4.0,6.0,53,0.00,,,0.00,805,Wunderground v.1.15,2014-07-24 19:19:00,
2014-07-24 15:24:00,72.1,53.5,30.08,NNW,328,3.0,3.0,52,0.00,,,0.00,898,Wunderground v.1.15,2014-07-24 19:24:00,
2014-07-24 15:29:00,72.3,54.7,30.08,North,5,2.0,5.0,54,0.00,,,0.00,353,Wunderground v.1.15,2014-07-24 19:29:00,
2014-07-24 15:34:00,71.8,53.2,30.08,North,355,3.0,11.0,52,0.00,,,0.00,295,Wunderground v.1.15,2014-07-24 19:34:00,
2014-07-24 15:39:00,71.4,53.4,30.08,North,5,5.0,11.0,53,0.00,,,0.00,232,Wunderground v.1.15,2014-07-24 19:39:00,
2014-07-24 15:44:00,71.2,52.7,30.08,North,5,4.0,4.0,52,0.00,,,0.00,773,Wunderground v.1.15,2014-07-24 19:44:00,
2014-07-24 15:49:00,71.8,53.2,30.08,NE,40,4.0,6.0,52,0.00,,,0.00,773,Wunderground v.1.15,2014-07-24 19:49:00,
2014-07-24 15:54:00,72.2,53.1,30.08,North,351,3.0,5.0,51,0.00,,,0.00,306,Wunderground v.1.15,2014-07-24 19:54:00,
2014-07-24 15:59:00,72.1,53.5,30.08,NW,317,3.0,5.0,52,0.00,,,0.00,424,Wunderground v.1.15,2014-07-24 19:59:00,
2014-07-24 16:04:00,72.2,53.6,30.08,NNW,333,2.0,4.0,52,0.00,,,0.00,295,Wunderground v.1.15,2014-07-24 20:04:00,
2014-07-24 16:09:00,72.0,53.4,30.08,North,5,2.0,6.0,52,0.00,,,0.00,269,Wunderground v.1.15,2014-07-24 20:09:00,
2014-07-24 16:14:00,71.5,52.9,30.08,North,360,2.0,2.0,52,0.00,,,0.00,195,Wunderground v.1.15,2014-07-24 20:14:00,
2014-07-24 16:19:00,71.3,54.3,30.08,NW,323,2.0,2.0,55,0.00,,,0.00,346,Wunderground v.1.15,2014-07-24 20:19:00,
2014-07-24 16:24:00,71.6,52.5,30.07,NE,49,2.0,2.0,51,0.00,,,0.00,236,Wunderground v.1.15,2014-07-24 20:24:00,
2014-07-24 16:29:00,71.7,53.1,30.07,NNE,14,2.0,3.0,52,0.00,,,0.00,213,Wunderground v.1.15,2014-07-24 20:29:00,
2014-07-24 16:34:00,71.4,52.9,30.07,North,5,2.0,11.0,52,0.00,,,0.00,188,Wunderground v.1.15,2014-07-24 20:34:00,
2014-07-24 16:39:00,71.1,54.1,30.07,NNE,17,2.0,11.0,55,0.00,,,0.00,146,Wunderground v.1.15,2014-07-24 20:39:00,